Location: Moscow
(38.8570°N, 84.2291°W)
Time: 18:43:44
(UTC+00:00)

ESTCUBE 1 - Visible Passes

Search period start: 07 March 2026 00:00
Search period end: 17 March 2026 00:00
Orbit: 620 x 632 km, 97.7° (Epoch: 7 March)

Date Brightness Start Highest point End Pass type
(mag) Time Alt. Az. Time Alt. Az. Time Alt. Az.
8 Mar ? 01:53:50 11° N 01:53:50 11° N 01:54:07 10° N visible
9 Mar ? 02:13:00 13° N 02:13:00 13° N 02:13:28 10° N visible
10 Mar ? 02:32:10 13° NNW 02:32:10 13° NNW 02:32:38 10° NNW visible
11 Mar ? 02:51:21 12° NNW 02:51:21 12° NNW 02:51:38 10° NNW visible
12 Mar ? 01:33:14 12° NNE 01:33:14 12° NNE 01:33:45 10° NNE visible
13 Mar ? 01:52:23 15° NNE 01:52:23 15° NNE 01:53:19 10° N visible
14 Mar ? 02:11:32 17° N 02:11:32 17° N 02:12:39 10° N visible
15 Mar ? 02:30:41 18° NNW 02:30:41 18° NNW 02:31:48 10° NNW visible
16 Mar ? 01:12:34 11° NE 01:12:34 11° NE 01:12:51 10° NE visible
16 Mar ? 02:49:50 16° NNW 02:49:50 16° NNW 02:50:47 10° NNW visible
